When you browse on this site, cookies collect data to enhance your experience and personalize the content and advertising you see.
Visit our Privacy Policy to learn more. By continuing to use the site, you agree to this use of cookies and data.
  • en France
  • Liste des pays
  • À 7 jours
  • Température de l'eau
  • Carte météo
  • Widgets météo
  • user-avatar
    Se connecter

    Météo par heure à Namur

    Ce jour, 9 Avril, Jeudi

    Heure Température Précipitation Vent Pression Humidité
    00:00 +14°C° 0 mm 0 m/s 757 mmHg 62%
    01:00 +14°C° 0 mm 0 m/s 756 mmHg 63%
    02:00 +14°C° 0 mm 0 m/s 756 mmHg 64%
    03:00 +14°C° 0 mm 0 m/s 756 mmHg 65%
    04:00 +13°C° 0 mm 0 m/s 756 mmHg 68%
    05:00 +14°C° 0 mm 1 m/s 757 mmHg 70%
    06:00 +14°C° 0 mm 1 m/s 757 mmHg 73%
    07:00 +15°C° 0 mm 1 m/s 757 mmHg 70%
    08:00 +18°C° 0 mm 1 m/s 757 mmHg 67%
    09:00 +19°C° 0 mm 1 m/s 758 mmHg 64%
    10:00 +19°C° 0 mm 2 m/s 758 mmHg 59%
    11:00 +21°C° 0 mm 2 m/s 758 mmHg 55%
    12:00 +23°C° 0 mm 2 m/s 758 mmHg 50%
    13:00 +23°C° 0 mm 2 m/s 757 mmHg 50%
    14:00 +22°C° 0 mm 3 m/s 757 mmHg 50%
    15:00 +22°C° 0 mm 3 m/s 757 mmHg 50%
    16:00 +20°C° 0 mm 3 m/s 757 mmHg 57%
    17:00 +19°C° 0 mm 3 m/s 757 mmHg 64%
    18:00 +17°C° 0 mm 3 m/s 757 mmHg 71%
    19:00 +16°C° 0 mm 3 m/s 757 mmHg 72%
    20:00 +13°C° 0 mm 3 m/s 758 mmHg 72%
    21:00 +12°C° 0 mm 3 m/s 758 mmHg 73%
    22:00 +12°C° 0 mm 3 m/s 758 mmHg 74%
    23:00 +12°C° 0 mm 2 m/s 758 mmHg 76%

    Demain, 10 Avril, Vendredi

    Heure Température Précipitation Vent Pression Humidité
    00:00 +10°C° 0 mm 2 m/s 759 mmHg 77%
    01:00 +10°C° 0 mm 2 m/s 758 mmHg 79%
    02:00 +10°C° 0 mm 2 m/s 758 mmHg 81%
    03:00 +9°C° 0 mm 2 m/s 758 mmHg 82%
    04:00 +10°C° 0 mm 2 m/s 758 mmHg 83%
    05:00 +10°C° 0 mm 2 m/s 758 mmHg 84%
    06:00 +10°C° 0 mm 2 m/s 759 mmHg 85%
    07:00 +13°C° 0 mm 2 m/s 759 mmHg 78%
    08:00 +14°C° 0 mm 3 m/s 759 mmHg 72%
    09:00 +17°C° 0 mm 3 m/s 759 mmHg 65%
    10:00 +18°C° 0 mm 3 m/s 759 mmHg 60%
    11:00 +19°C° 0 mm 3 m/s 758 mmHg 55%
    12:00 +21°C° 0 mm 3 m/s 758 mmHg 51%
    13:00 +20°C° 0 mm 3 m/s 758 mmHg 52%
    14:00 +20°C° 0 mm 3 m/s 757 mmHg 52%
    15:00 +20°C° 0 mm 4 m/s 757 mmHg 53%
    16:00 +19°C° 0 mm 4 m/s 757 mmHg 59%
    17:00 +17°C° 0 mm 4 m/s 757 mmHg 65%
    18:00 +14°C° 0 mm 3 m/s 757 mmHg 71%
    19:00 +13°C° 0 mm 3 m/s 757 mmHg 71%
    20:00 +12°C° 0 mm 3 m/s 757 mmHg 71%
    21:00 +10°C° 0 mm 3 m/s 757 mmHg 70%
    22:00 +10°C° 0 mm 2 m/s 757 mmHg 70%
    23:00 +9°C° 0 mm 2 m/s 757 mmHg 70%

    Après-demain, 11 Avril, Samedi

    Heure Température Précipitation Vent Pression Humidité
    00:00 +9°C° 0 mm 2 m/s 757 mmHg 69%
    01:00 +9°C° 0 mm 2 m/s 757 mmHg 70%
    02:00 +9°C° 0 mm 2 m/s 757 mmHg 71%
    03:00 +9°C° 0 mm 1 m/s 757 mmHg 72%
    04:00 +10°C° 0 mm 1 m/s 757 mmHg 73%
    05:00 +10°C° 0 mm 1 m/s 757 mmHg 74%
    06:00 +10°C° 0 mm 1 m/s 757 mmHg 75%
    07:00 +13°C° 0 mm 1 m/s 757 mmHg 69%
    08:00 +15°C° 0 mm 1 m/s 757 mmHg 64%
    09:00 +19°C° 0 mm 1 m/s 757 mmHg 58%
    10:00 +18°C° 0 mm 0 m/s 756 mmHg 56%
    11:00 +19°C° 0 mm 0 m/s 756 mmHg 53%
    12:00 +20°C° 0 mm 0 m/s 756 mmHg 51%
    13:00 +21°C° 0 mm 0 m/s 755 mmHg 49%
    14:00 +21°C° 0 mm 0 m/s 755 mmHg 48%
    15:00 +21°C° 0 mm 0 m/s 754 mmHg 47%
    16:00 +21°C° 0.1 mm 1 m/s 754 mmHg 53%
    17:00 +20°C° 0.1 mm 1 m/s 754 mmHg 59%
    18:00 +19°C° 0.1 mm 1 m/s 754 mmHg 66%
    19:00 +18°C° 0.1 mm 1 m/s 754 mmHg 68%
    20:00 +16°C° 0.1 mm 1 m/s 754 mmHg 70%
    21:00 +15°C° 0.1 mm 1 m/s 754 mmHg 72%
    22:00 +15°C° 0.1 mm 1 m/s 754 mmHg 73%
    23:00 +15°C° 0.1 mm 1 m/s 753 mmHg 74%

    12 Avril, Dimanche

    Heure Température Précipitation Vent Pression Humidité
    00:00 +15°C° 0.1 mm 1 m/s 753 mmHg 75%
    01:00 +14°C° 0 mm 2 m/s 753 mmHg 76%
    02:00 +14°C° 0 mm 2 m/s 752 mmHg 78%
    03:00 +13°C° 0 mm 2 m/s 752 mmHg 79%
    04:00 +13°C° 0 mm 2 m/s 751 mmHg 80%
    05:00 +13°C° 0 mm 2 m/s 751 mmHg 81%
    06:00 +13°C° 0 mm 2 m/s 751 mmHg 83%
    07:00 +14°C° 0.1 mm 3 m/s 750 mmHg 76%
    08:00 +17°C° 0.1 mm 3 m/s 750 mmHg 70%
    09:00 +19°C° 0.1 mm 3 m/s 750 mmHg 63%
    10:00 +19°C° 0.1 mm 3 m/s 749 mmHg 58%
    11:00 +20°C° 0.1 mm 3 m/s 749 mmHg 53%
    12:00 +21°C° 0.1 mm 3 m/s 748 mmHg 48%
    13:00 +21°C° 0 mm 3 m/s 748 mmHg 48%
    14:00 +21°C° 0 mm 3 m/s 747 mmHg 47%
    15:00 +21°C° 0 mm 3 m/s 747 mmHg 47%
    16:00 +20°C° 0.1 mm 3 m/s 747 mmHg 56%
    17:00 +18°C° 0.1 mm 3 m/s 746 mmHg 64%
    18:00 +17°C° 0.1 mm 3 m/s 746 mmHg 73%
    19:00 +16°C° 0 mm 3 m/s 746 mmHg 73%
    20:00 +13°C° 0 mm 3 m/s 746 mmHg 74%
    21:00 +12°C° 0 mm 3 m/s 747 mmHg 75%
    22:00 +12°C° 0 mm 3 m/s 747 mmHg 79%
    23:00 +12°C° 0 mm 3 m/s 747 mmHg 82%

    13 Avril, Lundi

    Heure Température Précipitation Vent Pression Humidité
    00:00 +11°C° 0 mm 3 m/s 747 mmHg 86%
    01:00 +12°C° 0 mm 3 m/s 747 mmHg 86%
    02:00 +12°C° 0 mm 3 m/s 747 mmHg 86%
    03:00 +12°C° 0 mm 3 m/s 748 mmHg 87%
    04:00 +13°C° 0 mm 2 m/s 748 mmHg 88%
    05:00 +13°C° 0 mm 2 m/s 749 mmHg 89%
    06:00 +13°C° 0 mm 2 m/s 749 mmHg 90%
    07:00 +14°C° 0.1 mm 2 m/s 750 mmHg 87%
    08:00 +14°C° 0.1 mm 2 m/s 750 mmHg 85%
    09:00 +15°C° 0.1 mm 2 m/s 751 mmHg 83%
    10:00 +16°C° 0.3 mm 2 m/s 751 mmHg 80%
    11:00 +18°C° 0.3 mm 1 m/s 752 mmHg 77%
    12:00 +18°C° 0.3 mm 1 m/s 752 mmHg 74%
    13:00 +19°C° 0.3 mm 1 m/s 752 mmHg 72%
    14:00 +18°C° 0.3 mm 2 m/s 752 mmHg 70%
    15:00 +19°C° 0.3 mm 2 m/s 752 mmHg 68%
    16:00 +18°C° 0.3 mm 2 m/s 752 mmHg 73%
    17:00 +17°C° 0.3 mm 2 m/s 753 mmHg 78%
    18:00 +16°C° 0.3 mm 3 m/s 753 mmHg 83%
    19:00 +14°C° 0 mm 3 m/s 754 mmHg 85%
    20:00 +13°C° 0 mm 3 m/s 754 mmHg 87%
    21:00 +12°C° 0 mm 3 m/s 755 mmHg 90%
    22:00 +11°C° 0 mm 3 m/s 755 mmHg 91%
    23:00 +10°C° 0 mm 3 m/s 755 mmHg 92%

    14 Avril, Mardi

    Heure Température Précipitation Vent Pression Humidité
    00:00 +10°C° 0 mm 3 m/s 756 mmHg 93%
    01:00 +9°C° 0 mm 3 m/s 756 mmHg 93%
    02:00 +9°C° 0 mm 3 m/s 756 mmHg 93%
    03:00 +8°C° 0 mm 3 m/s 756 mmHg 93%
    04:00 +8°C° 0 mm 3 m/s 756 mmHg 92%
    05:00 +8°C° 0 mm 3 m/s 756 mmHg 92%
    06:00 +8°C° 0 mm 3 m/s 757 mmHg 91%
    07:00 +10°C° 0 mm 3 m/s 757 mmHg 86%
    08:00 +12°C° 0 mm 3 m/s 757 mmHg 81%
    09:00 +14°C° 0 mm 3 m/s 757 mmHg 75%
    10:00 +17°C° 0 mm 3 m/s 756 mmHg 70%
    11:00 +18°C° 0 mm 4 m/s 756 mmHg 64%
    12:00 +19°C° 0 mm 4 m/s 756 mmHg 59%
    13:00 +20°C° 0 mm 4 m/s 756 mmHg 57%
    14:00 +20°C° 0 mm 4 m/s 755 mmHg 56%
    15:00 +20°C° 0 mm 4 m/s 755 mmHg 55%
    16:00 +18°C° 0 mm 3 m/s 755 mmHg 60%
    17:00 +17°C° 0 mm 3 m/s 754 mmHg 65%
    18:00 +14°C° 0 mm 3 m/s 754 mmHg 69%
    19:00 +13°C° 0 mm 3 m/s 754 mmHg 71%
    20:00 +12°C° 0 mm 3 m/s 754 mmHg 72%
    21:00 +11°C° 0 mm 3 m/s 754 mmHg 74%
    22:00 +10°C° 0 mm 3 m/s 754 mmHg 73%
    23:00 +9°C° 0 mm 3 m/s 754 mmHg 72%
    Voir plus